FENGYUN 1C DEB

Satellite information

Favourite Embed

Satellite Type and Status

DEBRISIN ORBIT

Key statistics

Satellite FENGYUN 1C DEB at a glance.

Uptime

9609

Days in orbit

Revolutions

≈ 14.1

Per day

Orbit

SSO

Sun Synchronous Orbit

Inclination

98.3

Latest

Satellite identification and parameters

Extended collection of information and parameters for FENGYUN 1C DEB.

Object identification

Identified? True

Debris? True

Object name: FENGYUN 1C DEB

International designator: 1999-025GF

Object number (NORAD): 29885

Object ID (CCSDS): 29885

Country: PEOPLES REPUBLIC OF CHINA (PRC)

Current information (Y/N): Y

RCS size: SMALL

Orbital parameters

Period: 101.877 minutes

Inclination: 98.3377 deg

SMA: 7225.66 km

Apoapsis: 933.879 km

Periapsis: 761.172 km

RAAN: 183.8158 deg

Eccentricy: 0.01195092

Argument of periapsis: 106.7251 deg

Mean anomaly: 314.5482 deg

Mean motion: 14.13469554 rev/day

Mean motion (dot): 0.00000347 rev/day2

B* drag term: 0.00019157155 1/REarth

Two-line elements (TLE)

Creation date: Aug. 30, 2025, 3:38 a.m.

Reference frame: TEME

Reference center: EARTH

Epoch: Aug. 29, 2025, 8:10 p.m. UTC

TLE line 0: 0 FENGYUN 1C DEB

TLE line 1: 1 29885U 99025GF 25241.84029422 .00000347 00000-0 19157-3 0 9992

TLE line 2: 2 29885 98.3377 183.8158 0119509 106.7251 314.5482 14.13469554959756

Live tracking on map

Real-time ground track for satellite FENGYUN 1C DEB.

In-orbit conjunctions

A list of the most updated potential collisions computed for object FENGYUN 1C DEB.

Target Orbit TCA Probability of collision Miss distance Type
SCOUT A R/B SSO 2025-04-25 07:40:46 0.001554591 78.0 (m) ROCKET BODY
DELTA 1 DEB SSO 2025-03-10 07:14:43 0.0001173035 168.0 (m) DEBRIS
CZ-6A DEB LEO 2024-11-09 03:46:23 0.0001094543 460.0 (m) DEBRIS

Associated space launch

Chinese polar orbiting meteorological satellite

FENGYUN 1C DEB was lifted into orbit during the mission ‘Long March 4B | Feng Yun 1C’, on board a Long March 4B space rocket.

The launch took place on May 10, 1999, 1:33 a.m. from Launch Complex 7.

For more information about the launch, click the button.

Launch to space Long March 4B | Feng Yun 1C
Long March 4B | Feng Yun 1C

Agency: N/A

Status: Launch Successful

Launch date: May 10, 1999, 1:33 a.m. UTC

Rocket: Long March 4B

Launch pad: Launch Complex 7

Location: Taiyuan Satellite Launch Center, People's Republic of China

...

Latest news about this satellite

There are no fresh news available about this satellite. Check back as we update our databases every day.


Newsletter sign-up

Weekly statistics, charts and insights to help you stay on top of the space industry.